Location: Aranbee
(34.0885°N, 118.2342°W)
Time: 09:38:48
(UTC+00:00)

Courier 1B Rocket - Pass Details

Date: 27 November 2020
Orbit: 920 x 1202 km, 28.2° (Epoch: 27 January)

Event Time Altitude Azimuth Distance (km) Brightness Sun altitude
Rises 20:27:10 0° 261° (W) 3,860 8.4 33.5°
Reaches altitude 10° 20:32:06 10° 232° (SW) 2,825 8.3 33.3°
Maximum altitude 20:34:26 12° 212° (SSW) 2,649 8.6 33.1°
Drops below altitude 10° 20:36:44 10° 191° (SSW) 2,752 8.9 33.0°
Sets 20:41:23 0° 161° (SSE) 3,633 8.7 32.7°
